Dewpoint
71 72 73 74 74 74 74 74 74 74 74 73 73 74 74 74 73 73 73 73 73 72 72 72 72 72 71 71 71 71 72 72 72 72 72 72 71 71 71 71 71 72 72 71 71 70 70 70 70 70 70 70 70 71 70 70 70 70 71 71 71 70 70 70 70 70 70 70 70 70 70 70 69 69 69 68 68 67 66 67 67 66 66 65 66
70 72 73 73 74 74 74 74 74 74 74 74 74 74 74 74 73 73 73 72 72 73 73 72 72 71 71 71 71 70 71 71 72 72 72 71 71 71 71 71 71 71 71 71 71 70 70 69 70 70 70 70 70 70 71 70 70 70 70 71 70 70 70 70 70 70 70 70 70 70 70 70 69 69 69 68 68 68 68 67 67 66 65 66 66
71 72 73 73 74 74 74 74 74 74 74 73 74 74 74 73 73 72 73 73 73 73 72 71 71 71 71 71 70 70 69 69 70 72 72 71 70 71 71 71 71 71 71 71 70 70 70 70 70 70 70 70 70 70 70 70 70 70 70 70 70 70 70 70 70 69 70 70 70 70 70 70 70 69 69 68 68 68 68 68 67 66 65 66 66
71 72 73 73 74 74 74 74 74 74 74 74 74 74 73 73 73 73 73 73 73 72 71 71 71 70 71 70 69 69 68 68 67 68 69 70 71 71 71 70 71 71 71 70 69 69 69 70 70 70 70 70 70 70 70 70 70 71 71 71 71 71 71 70 70 70 70 69 70 70 70 68 69 70 69 68 68 68 68 68 68 67 67 66 66
71 72 72 72 73 74 74 74 74 74 74 74 74 74 73 73 73 73 73 73 72 71 71 70 70 70 70 69 68 67 67 67 68 70 68 68 70 70 71 70 71 70 70 69 69 70 69 70 70 70 70 70 70 70 71 71 71 72 72 72 72 72 72 72 71 71 70 69 70 69 66 68 68 70 69 69 68 68 68 67 67 67 67 66 66
71 72 72 72 73 74 74 74 74 74 74 74 73 73 73 73 73 73 73 72 72 72 71 71 70 69 69 68 68 68 69 71 71 70 70 70 71 69 70 70 70 70 69 69 69 69 69 70 70 70 69 70 70 70 71 72 72 72 72 72 72 72 72 72 72 73 71 70 69 67 65 67 68 69 70 70 69 69 68 68 67 67 67 67 66
71 72 72 72 73 73 74 74 74 74 74 74 74 73 73 73 73 73 73 72 72 72 71 71 70 70 69 69 69 69 71 72 71 71 71 70 70 69 70 70 70 70 69 69 69 69 69 70 70 69 70 70 70 71 71 72 72 72 72 72 72 72 72 73 72 71 73 72 68 66 65 67 68 69 69 69 69 69 69 69 68 68 67 67 67
71 72 72 72 72 73 74 74 73 74 74 73 73 73 73 73 73 73 72 72 72 71 71 71 71 70 70 69 69 68 71 71 71 71 70 70 70 69 69 68 68 69 69 69 69 69 70 70 70 70 70 70 70 71 70 71 71 71 71 71 71 71 72 72 71 71 71 68 67 65 64 67 68 68 69 69 69 69 69 69 68 67 67 66 66
71 71 72 72 72 74 74 74 74 74 73 73 73 73 73 73 73 73 72 72 71 71 71 71 70 70 69 69 68 68 69 71 71 70 70 69 69 68 69 67 67 68 69 69 69 69 70 70 69 69 70 70 70 70 71 70 70 71 71 71 71 71 72 70 70 69 67 67 64 63 65 67 67 67 69 69 69 69 68 68 68 67 67 66 66
71 71 71 71 72 73 74 74 74 73 73 73 73 73 73 73 73 73 72 72 71 71 71 70 70 70 69 69 69 69 70 69 69 70 69 69 68 68 69 67 66 68 68 69 69 69 69 70 69 69 70 70 70 70 70 70 71 71 71 71 71 71 72 70 68 69 62 61 62 64 66 69 68 68 70 70 70 70 69 69 69 68 67 67 66
70 70 71 71 72 74 74 74 74 74 73 73 73 73 73 73 73 73 73 72 72 71 71 70 70 70 69 69 69 70 70 70 70 70 69 69 68 68 68 67 68 68 68 69 68 69 70 69 69 70 70 70 70 70 70 70 71 71 71 71 71 72 71 70 67 63 65 60 62 63 68 69 67 67 70 70 70 70 69 69 69 68 68 67 67
70 70 71 71 73 74 74 74 74 73 73 73 73 73 73 73 73 73 73 72 72 72 72 71 70 70 70 70 70 70 70 69 70 69 69 68 68 68 68 68 68 68 68 68 68 69 70 69 69 70 69 69 70 69 70 70 71 71 71 71 72 72 72 69 66 64 63 59 63 66 69 68 67 69 70 70 70 70 69 69 69 68 68 67 67
70 70 71 72 72 74 74 73 73 73 73 73 73 73 73 73 73 73 72 72 72 72 72 71 70 70 70 71 71 70 69 69 69 69 69 68 68 68 68 67 67 68 68 68 70 70 70 69 69 69 70 69 70 70 70 70 71 72 71 71 71 71 72 69 66 63 62 63 66 66 66 66 68 70 70 70 70 70 69 69 69 68 67 67 67
70 70 71 72 72 74 73 73 73 73 73 73 73 73 73 73 73 73 72 72 72 72 71 71 71 70 71 71 70 70 70 69 69 69 68 68 68 68 68 67 66 68 71 70 70 70 69 69 69 69 70 70 70 70 70 71 71 72 72 71 71 71 70 67 67 61 62 63 65 65 66 68 68 71 70 69 69 69 69 69 68 67 67 67 67
69 70 71 71 72 72 73 73 73 73 73 73 73 73 73 73 73 73 72 72 72 72 72 71 71 71 71 70 70 70 70 69 69 68 68 68 68 68 68 68 68 70 70 70 70 70 69 69 69 69 70 70 69 70 71 71 72 72 71 70 72 70 69 64 63 62 63 64 65 65 66 68 71 71 69 69 69 69 68 68 68 68 67 67 68
70 70 71 71 71 71 72 73 73 73 73 73 73 73 73 73 73 73 72 72 72 72 72 72 71 71 71 70 70 70 69 69 69 68 67 67 67 68 68 69 69 68 69 69 69 69 69 69 69 69 69 70 70 70 71 71 72 71 71 71 70 70 69 67 63 61 62 63 66 68 67 69 72 71 69 69 69 68 68 69 68 68 68 68 68
70 71 70 71 71 71 71 72 73 74 73 73 73 73 73 73 73 73 73 72 72 72 72 72 72 71 71 70 70 70 69 68 68 68 68 67 67 68 68 69 69 68 69 69 69 69 69 69 69 69 69 70 70 70 71 71 71 71 71 70 69 70 69 68 65 65 66 67 67 67 68 69 71 71 69 68 69 69 69 69 69 69 69 69 68
70 70 70 70 70 70 71 71 72 72 72 73 72 72 73 73 73 73 73 72 72 72 72 72 72 71 71 70 70 70 69 68 68 68 68 67 67 67 68 68 69 68 68 68 68 68 69 69 69 69 69 69 70 71 71 71 71 70 70 70 69 69 70 69 67 68 69 70 68 69 68 71 71 70 69 69 69 69 69 69 69 69 69 69 69
69 69 70 70 70 70 70 71 72 72 72 72 72 71 73 73 73 73 73 72 72 72 72 72 72 71 71 71 70 70 70 69 68 68 68 67 67 67 67 67 68 68 68 67 67 69 69 69 69 69 69 70 70 71 71 70 70 69 69 70 68 68 69 69 69 69 70 69 69 69 68 71 71 70 69 69 69 69 69 69 69 70 69 69 69
69 69 69 69 70 70 70 71 71 71 72 71 71 72 72 72 72 73 72 72 72 72 72 72 72 72 71 71 70 70 69 68 68 68 68 67 67 67 67 67 68 68 67 67 67 68 68 68 69 69 70 70 71 71 70 70 69 68 68 69 67 68 66 67 69 69 70 70 70 69 71 70 69 69 69 70 70 69 69 69 69 69 69 68 68
68 69 69 69 69 69 70 71 71 71 72 72 71 71 72 73 73 73 72 72 72 72 72 72 71 71 71 70 70 69 67 67 67 66 67 67 67 67 68 67 67 67 68 68 68 68 68 68 69 69 70 70 70 69 69 69 68 67 66 67 67 64 67 68 69 70 70 70 70 69 70 69 69 69 69 69 69 69 70 69 69 69 68 68 68
67 68 68 69 69 69 70 71 71 71 71 72 72 72 72 72 72 72 72 72 72 72 71 71 71 70 71 70 68 69 66 65 65 69 66 67 67 68 68 68 67 67 67 67 67 68 68 68 69 69 69 70 69 65 65 67 66 66 64 66 64 66 68 68 69 69 69 69 70 69 69 69 69 69 69 69 70 69 69 69 68 68 68 68 68
67 67 68 68 68 69 70 71 71 71 71 71 72 72 72 71 71 71 71 72 72 72 71 71 69 69 68 68 68 66 65 65 66 68 68 68 67 67 68 68 68 67 68 67 67 68 68 68 69 69 70 69 64 63 63 62 62 65 65 64 65 67 68 68 68 69 69 69 68 69 68 69 69 69 69 69 69 69 68 68 68 67 67 68 67
66 66 67 68 69 69 70 70 71 71 71 71 71 72 71 71 71 71 71 71 71 71 70 70 69 68 67 67 66 66 66 65 69 69 69 67 66 67 68 68 68 68 68 69 69 69 69 70 69 69 68 66 62 62 63 61 62 61 60 64 67 68 68 68 69 69 69 68 68 68 68 68 68 69 69 68 69 69 68 68 67 68 67 67 66
66 66 67 68 69 69 70 70 70 71 70 71 71 71 71 71 71 71 71 70 70 70 70 69 68 67 67 67 66 66 65 64 64 65 65 64 64 63 65 65 65 64 69 63 63 65 64 62 62 65 61 62 62 62 62 61 62 61 61 67 68 69 69 69 68 68 68 68 68 68 68 68 68 68 68 69 69 68 67 67 68 67 65 64 63
66 66 66 68 68 69 70 70 70 70 70 70 71 71 71 70 70 71 71 70 70 69 69 69 67 67 66 67 66 65 64 63 63 64 63 62 63 63 64 63 63 63 66 65 65 63 62 61 61 62 62 62 62 62 61 64 61 63 66 68 68 68 68 68 68 68 68 67 66 67 66 66 66 65 66 66 66 67 68 66 65 64 63 61 60
65 65 66 67 68 69 69 70 70 70 70 70 70 71 70 70 70 70 70 70 70 68 68 68 67 66 66 67 66 64 64 63 62 62 62 62 63 63 63 62 63 63 64 64 63 63 63 62 61 62 61 60 60 61 64 64 64 66 67 68 68 67 68 67 67 66 65 64 64 64 64 63 63 63 63 63 64 64 65 64 63 62 61 60 59
65 65 66 67 68 68 69 69 69 70 70 70 70 70 70 70 70 70 70 70 70 68 68 68 67 66 66 66 67 64 64 63 62 62 62 62 62 62 62 62 63 63 63 63 62 61 62 61 61 60 63 62 63 64 65 65 66 67 67 67 67 67 67 66 65 63 62 61 62 62 62 61 61 61 60 61 62 64 63 61 61 61 61 60 60
64 65 66 66 67 68 68 69 69 69 69 70 70 70 70 70 70 69 69 70 69 69 68 68 66 66 65 65 66 64 63 64 63 63 61 62 62 62 62 62 63 63 62 62 62 62 63 63 63 64 63 64 64 65 66 66 66 67 67 67 67 66 66 64 61 60 59 58 58 60 61 60 60 60 59 59 61 62 61 60 61 61 60 59 59
64 65 65 65 66 67 68 68 69 69 69 70 70 69 69 69 69 69 69 69 69 69 68 67 67 66 65 64 65 65 64 64 64 62 62 63 62 61 63 62 62 62 63 62 63 63 63 63 64 64 65 64 65 65 65 65 66 66 66 66 66 66 64 62 60 59 58 58 57 58 60 59 59 59 59 59 60 61 61 60 60 60 60 59 59
64 65 65 65 66 67 67 68 68 69 69 69 69 69 69 69 69 69 69 69 69 69 68 68 67 66 65 64 64 65 64 64 64 63 63 63 62 62 62 62 62 63 63 63 63 64 63 64 64 64 64 64 65 65 65 65 66 66 66 65 66 65 63 61 60 59 58 58 58 58 57 58 58 58 58 59 60 60 60 60 60 59 59 58 58
64 64 65 65 65 66 67 67 68 69 69 69 69 69 69 69 69 69 69 69 69 69 68 68 68 66 66 65 64 64 65 64 64 63 63 63 63 63 62 62 62 63 64 64 65 64 64 65 65 64 64 65 64 64 64 65 65 66 66 65 65 63 60 59 58 59 58 57 56 55 56 57 57 57 57 58 59 59 59 59 59 59 58 58 56
64 64 64 65 65 66 67 67 68 68 69 68 68 68 69 69 69 69 69 69 69 69 68 67 67 66 65 65 65 64 65 64 64 64 66 64 64 64 63 63 63 64 65 64 65 65 65 65 66 65 65 64 64 64 64 64 64 65 65 65 64 61 59 59 58 57 56 54 52 51 51 54 55 58 57 58 58 58 57 57 58 57 57 57 56
64 64 64 64 65 66 67 66 67 68 68 68 68 68 68 68 69 69 69 69 69 68 68 67 66 65 66 66 65 65 65 64 64 64 65 64 64 64 64 64 65 67 66 65 65 64 64 64 64 64 67 63 63 63 63 63 63 63 64 64 64 60 59 58 57 55 54 52 50 48 48 49 51 53 56 57 56 56 56 56 56 56 56 56 56
64 64 64 64 65 66 66 66 67 67 68 68 68 67 68 68 68 68 69 69 68 68 67 66 65 66 66 66 66 66 65 65 65 65 65 64 64 64 64 66 67 67 65 64 64 64 63 63 64 63 63 63 63 63 61 60 61 62 63 61 60 60 59 58 58 56 53 50 48 47 48 48 48 48 50 48 58 54 55 55 54 54 53 53 54
64 64 64 64 65 65 66 66 67 67 67 67 67 67 68 68 68 69 68 68 68 67 67 66 66 66 66 66 66 66 65 65 65 65 65 64 64 65 65 66 67 65 63 63 63 63 62 63 64 63 63 62 60 58 57 57 57 57 55 56 57 57 56 54 52 50 49 48 47 47 47 48 48 50 50 46 49 55 53 53 53 53 52 52 52
64 64 64 64 64 65 66 65 66 66 67 67 67 67 67 68 68 68 68 68 67 67 66 67 66 66 66 66 66 67 65 65 65 65 65 65 65 66 66 66 66 63 63 63 63 63 62 63 63 64 63 60 57 54 53 52 52 52 52 52 53 53 51 51 50 50 50 48 48 48 49 50 51 51 44 43 43 46 51 51 49 48 49 49 48
64 65 64 64 64 65 65 65 65 66 66 66 66 66 67 68 68 68 68 67 66 66 67 67 66 66 65 65 65 66 66 65 66 65 65 65 66 66 66 66 65 63 63 63 63 62 62 62 62 63 61 57 54 52 50 50 51 51 50 50 51 51 51 51 52 53 48 47 47 46 46 47 46 46 44 43 42 42 43 49 51 50 45 45 46
65 65 65 65 65 65 65 65 65 65 66 66 66 66 67 67 67 67 67 67 66 67 67 66 66 65 65 65 65 66 66 65 66 66 65 66 66 66 66 65 64 63 63 63 62 62 62 61 62 61 60 56 53 51 50 50 51 50 49 49 49 49 49 51 49 49 49 49 48 49 48 47 47 47 46 46 44 43 43 44 43 43 47 45 44
65 65 65 65 65 65 65 65 64 65 65 66 66 66 66 66 66 66 66 66 66 67 66 66 65 65 66 66 66 65 66 66 66 66 66 66 66 66 65 65 63 63 63 62 61 61 62 62 61 59 56 55 52 51 50 50 50 50 51 50 50 49 48 49 48 48 49 47 47 47 46 47 46 46 46 46 46 45 45 46 51 45 47 50 50
65 65 65 65 65 65 64 64 64 65 65 65 65 65 65 66 66 66 66 65 66 66 66 65 65 65 65 66 66 66 66 66 66 66 66 67 66 66 65 65 64 63 62 62 61 61 61 62 61 58 54 52 51 50 49 47 46 46 48 48 49 51 53 49 47 47 46 46 45 45 47 45 45 45 45 46 45 45 46 45 45 45 45 45 45
64 64 64 65 65 65 64 64 63 64 65 65 65 65 65 66 65 65 65 65 66 66 65 65 65 65 65 65 66 66 66 66 67 66 66 66 66 65 64 64 64 62 61 61 61 64 62 60 59 57 56 52 51 50 49 47 48 44 43 45 47 48 51 49 49 49 48 47 45 45 44 43 43 43 44 44 44 45 44 45 45 45 45 44 43
64 64 64 64 64 64 64 63 63 64 64 65 65 65 65 66 65 65 66 65 65 66 66 65 66 65 65 65 66 66 66 66 66 67 66 66 65 64 64 63 62 63 62 61 61 61 61 59 58 57 55 55 53 52 51 55 50 47 46 44 43 44 47 47 47 48 48 47 46 45 45 43 42 42 44 42 41 41 43 45 44 44 44 44 44
64 64 64 64 64 64 64 63 63 64 64 65 65 65 66 65 65 66 66 66 65 65 65 65 65 64 65 65 65 66 66 67 66 66 66 65 64 64 63 63 62 62 61 59 59 60 60 58 58 57 55 53 53 53 55 55 49 49 49 51 47 45 42 40 43 45 47 46 47 45 45 43 43 44 42 39 41 43 42 45 44 43 43 43 43
64 64 64 64 64 64 64 63 64 64 64 66 65 65 66 65 66 65 66 66 66 65 65 64 65 65 65 65 65 66 66 66 66 66 65 64 64 63 63 62 62 60 59 59 59 59 60 58 56 56 55 54 52 52 52 56 51 56 54 52 50 50 48 45 44 42 46 41 42 45 51 44 43 46 44 41 43 43 47 44 43 43 43 43 41
63 64 64 64 64 64 64 63 64 64 65 65 65 66 65 65 65 65 64 65 64 64 64 64 64 65 65 65 65 66 66 65 65 65 65 64 63 62 61 61 60 59 59 58 57 57 58 57 55 55 55 55 53 50 50 53 53 56 55 53 53 52 47 42 41 33 45 48 47 47 45 44 44 45 44 44 43 43 51 45 43 42 42 41 39
63 64 64 64 64 64 64 63 63 64 65 65 66 66 65 65 65 65 65 64 64 64 63 64 65 65 64 64 65 65 65 64 64 63 63 63 61 60 60 60 59 58 59 56 56 56 56 57 57 54 53 52 51 51 52 53 51 50 53 53 54 52 45 41 42 40 38 41 42 43 40 43 44 44 45 45 46 44 44 46 42 41 39 40 38
63 64 63 64 64 63 63 63 63 65 65 65 65 65 65 65 65 65 65 65 64 64 63 63 63 65 65 65 65 65 64 63 63 62 62 61 59 59 59 58 57 57 58 56 55 55 56 57 57 55 51 49 51 52 51 51 53 50 52 51 51 47 46 48 44 37 39 36 37 39 41 43 45 44 48 46 45 44 43 43 43 38 39 37 38
63 63 63 63 64 63 63 63 63 64 65 65 65 65 65 65 65 65 65 65 65 64 63 63 63 64 64 64 64 63 62 61 61 61 60 60 60 57 57 57 56 56 58 55 55 54 54 55 54 51 49 49 50 50 50 50 51 49 48 47 47 47 47 47 46 44 41 38 37 38 37 41 43 44 45 44 45 46 46 47 48 42 44 38 38
63 63 63 63 63 63 63 63 63 64 65 65 65 65 65 65 65 65 64 64 64 63 63 63 63 63 63 63 62 61 60 59 59 59 59 58 57 57 56 55 55 56 56 54 53 53 53 54 53 51 51 50 51 50 49 49 49 48 48 47 45 45 44 44 44 42 42 40 37 37 39 38 38 39 43 40 39 40 37 36 35 35 35 36 38
63 63 62 63 63 63 63 63 63 64 65 65 65 65 65 65 65 65 64 64 64 64 63 63 63 63 62 61 61 60 59 58 57 57 57 56 56 56 55 54 55 59 55 53 52 52 52 52 52 51 50 49 49 49 49 49 48 47 46 47 47 47 45 43 43 43 42 39 37 38 41 42 39 31 35 37 33 30 33 36 35 35 36 37 39